Climatologie pour Saint-Brevin les Pins
Jour • Résumé pour juillet 3, 2017 Système :  Métrique    Anglais   Mixte
« - 1 jour
+ 1 jour »
Jour Semaine Mois Année Personnalisé
  Maximum : Minimum : Moyenne :
Température sous abri : -17.8 °C -9.8 °C -8.1 °C
Point de rosée : -17.8 °C -10.4 °C -9.7 °C
Humidité : Humidity % 66 % 83 %
Vitesse du vent : 0 km/h 0 km/h 9.7 km/h
Rafale : 0 km/h - -
Direction :- - West
Pression : 0 hPa 34625.2 hPa -
Précipitations : 0 mm    
Historical Graphs
 
 
Tableau de données pour juillet 3, 2017
Heure Tempé Pt rosée Pression Vent Vitesse Rafale Humidité Taux pluie (/hr) Soleil
-17.8 °C -17.8 °C 0 hPa Calm     Humidity % 0 mm SolarRadiationWatts/m^2 W/m2 Conditions
00:00 -8.9 °C -10 °C 34726.8 hPa WNW 5.1 km/h 31.1 km/h 88 % 0 mm 0 W/m2
00:10 -9.1 °C -10.1 °C 34726.8 hPa West 10.3 km/h 25.9 km/h 89 % 0 mm 0 W/m2
00:15 -9.1 °C -10.2 °C 34716.7 hPa NW 25.9 km/h 31.1 km/h 88 % 0 mm 0 W/m2
00:20 -9.2 °C -10.2 °C 34716.7 hPa West 12.9 km/h 31.1 km/h 89 % 0 mm 0 W/m2
00:25 -9.2 °C -10.2 °C 34716.7 hPa WNW 7.7 km/h 28.5 km/h 89 % 0 mm 0 W/m2
00:30 -9.3 °C -10.3 °C 34716.7 hPa Calm   28.5 km/h 89 % 0 mm 0 W/m2
00:35 -9.3 °C -10.3 °C 34726.8 hPa WNW 15.6 km/h 28.5 km/h 89 % 0 mm 0 W/m2
00:40 -9.3 °C -10.3 °C 34716.7 hPa WNW 7.7 km/h 23.3 km/h 89 % 0 mm 0 W/m2
00:45 -9.3 °C -10.2 °C 34716.7 hPa NW 15.6 km/h 23.3 km/h 90 % 0 mm 0 W/m2
00:50 -9.3 °C -10.3 °C 34716.7 hPa Calm   20.8 km/h 90 % 0 mm 0 W/m2
00:55 -9.3 °C -10.2 °C 34716.7 hPa NW 12.9 km/h 18.2 km/h 90 % 0 mm 0 W/m2
01:00 -9.3 °C -10.2 °C 34716.7 hPa WNW 12.9 km/h 25.9 km/h 90 % 0 mm 0 W/m2
01:05 -9.3 °C -10.2 °C 34716.7 hPa West 10.3 km/h 28.5 km/h 90 % 0 mm 0 W/m2
01:10 -9.3 °C -10.2 °C 34716.7 hPa West 15.6 km/h 28.5 km/h 90 % 0 mm 0 W/m2
01:15 -9.3 °C -10.2 °C 34716.7 hPa West 15.6 km/h 25.9 km/h 90 % 0 mm 0 W/m2
01:20 -9.3 °C -10.2 °C 34716.7 hPa WSW 10.3 km/h 25.9 km/h 90 % 0 mm 0 W/m2
01:25 -9.3 °C -10.2 °C 34716.7 hPa West 31.1 km/h 31.1 km/h 90 % 0 mm 0 W/m2
01:30 -9.3 °C -10.2 °C 34716.7 hPa West 12.9 km/h 31.1 km/h 90 % 0 mm 0 W/m2
01:35 -9.3 °C -10.2 °C 34716.7 hPa WNW 7.7 km/h 31.1 km/h 90 % 0 mm 0 W/m2
01:40 -9.2 °C -10.1 °C 34703.1 hPa West 2.6 km/h 23.3 km/h 90 % 0 mm 0 W/m2
01:45 -9.1 °C -10 °C 34716.7 hPa NW 18.2 km/h 33.6 km/h 90 % 0 mm 0 W/m2
01:50 -9.1 °C -10 °C 34716.7 hPa WNW 15.6 km/h 33.6 km/h 90 % 0 mm 0 W/m2
01:55 -9 °C -9.9 °C 34716.7 hPa WNW 18.2 km/h 33.6 km/h 90 % 0 mm 0 W/m2
02:00 -9 °C -9.9 °C 34716.7 hPa NW 12.9 km/h 25.9 km/h 90 % 0 mm 0 W/m2
02:05 -9 °C -9.9 °C 34716.7 hPa West 15.6 km/h 25.9 km/h 90 % 0 mm 0 W/m2
02:10 -8.9 °C -9.8 °C 34703.1 hPa WNW 7.7 km/h 25.9 km/h 90 % 0 mm 0 W/m2
02:15 -8.9 °C -9.8 °C 34703.1 hPa West 18.2 km/h 28.5 km/h 90 % 0 mm 0 W/m2
02:20 -8.9 °C -9.8 °C 34703.1 hPa NW 12.9 km/h 28.5 km/h 90 % 0 mm 0 W/m2
02:25 -8.9 °C -9.8 °C 34703.1 hPa West 12.9 km/h 31.1 km/h 90 % 0 mm 0 W/m2
02:30 -8.9 °C -9.8 °C 34703.1 hPa WNW 2.6 km/h 31.1 km/h 90 % 0 mm 0 W/m2
02:35 -8.9 °C -9.8 °C 34703.1 hPa WNW 12.9 km/h 20.8 km/h 90 % 0 mm 0 W/m2
02:40 -8.9 °C -9.8 °C 34703.1 hPa WNW 12.9 km/h 31.1 km/h 90 % 0 mm 0 W/m2
02:45 -8.8 °C -9.8 °C 34703.1 hPa WNW 5.1 km/h 31.1 km/h 90 % 0 mm 0 W/m2
02:50 -8.8 °C -9.8 °C 34703.1 hPa WNW 12.9 km/h 23.3 km/h 90 % 0 mm 0 W/m2
02:55 -8.8 °C -9.8 °C 34703.1 hPa WNW 5.1 km/h 25.9 km/h 90 % 0 mm 0 W/m2
03:00 -8.8 °C -9.8 °C 34703.1 hPa WNW 12.9 km/h 25.9 km/h 90 % 0 mm 0 W/m2
03:05 -8.8 °C -9.8 °C 34703.1 hPa WSW 5.1 km/h 23.3 km/h 90 % 0 mm 0 W/m2
03:10 -8.8 °C -9.7 °C 34703.1 hPa Calm   20.8 km/h 91 % 0 mm 0 W/m2
03:15 -8.8 °C -9.7 °C 34703.1 hPa WNW 5.1 km/h 20.8 km/h 91 % 0 mm 0 W/m2
03:20 -8.8 °C -9.7 °C 34703.1 hPa WNW 5.1 km/h 23.3 km/h 91 % 0 mm 0 W/m2
03:25 -8.8 °C -9.6 °C 34703.1 hPa WNW 7.7 km/h 23.3 km/h 91 % 0 mm 0 W/m2
03:30 -8.8 °C -9.6 °C 34693 hPa Calm   20.8 km/h 91 % 0 mm 0 W/m2
03:35 -8.8 °C -9.6 °C 34703.1 hPa NW 12.9 km/h 18.2 km/h 91 % 0 mm 0 W/m2
03:40 -8.8 °C -9.6 °C 34693 hPa WNW 5.1 km/h 18.2 km/h 91 % 0 mm 0 W/m2
03:45 -8.8 °C -9.6 °C 34693 hPa Calm   15.6 km/h 91 % 0 mm 0 W/m2
03:50 -8.8 °C -9.6 °C 34693 hPa NW 10.3 km/h 18.2 km/h 91 % 0 mm 0 W/m2
03:55 -8.8 °C -9.6 °C 34693 hPa Calm   18.2 km/h 91 % 0 mm 0 W/m2
04:00 -8.8 °C -9.5 °C 34693 hPa WNW 2.6 km/h 15.6 km/h 92 % 0 mm 0 W/m2
04:05 -8.8 °C -9.5 °C 34693 hPa WNW 7.7 km/h 15.6 km/h 92 % 0 mm 0 W/m2
04:10 -8.8 °C -9.5 °C 34693 hPa Calm   15.6 km/h 92 % 0 mm 0 W/m2
04:15 -8.8 °C -9.5 °C 34693 hPa Calm   10.3 km/h 92 % 0 mm 0 W/m2
04:20 -8.8 °C -9.5 °C 34693 hPa Calm   10.3 km/h 92 % 0 mm 0 W/m2
04:25 -8.8 °C -9.5 °C 34693 hPa Calm   2.6 km/h 92 % 0 mm 0 W/m2
04:30 -8.8 °C -9.5 °C 34693 hPa Calm   2.6 km/h 92 % 0 mm 0 W/m2
04:35 -8.8 °C -9.5 °C 34693 hPa Calm   2.6 km/h 92 % 0 mm 0 W/m2
04:40 -8.8 °C -9.5 °C 34682.8 hPa Calm     92 % 0 mm 0 W/m2
04:45 -8.8 °C -9.5 °C 34682.8 hPa Calm     92 % 0 mm 0 W/m2
04:50 -8.8 °C -9.5 °C 34693 hPa Calm     92 % 0 mm 0 W/m2
04:55 -8.8 °C -9.4 °C 34693 hPa Calm   2.6 km/h 93 % 0 mm 0 W/m2
05:00 -8.8 °C -9.4 °C 34682.8 hPa Calm   2.6 km/h 93 % 0 mm 0 W/m2
05:05 -8.8 °C -9.4 °C 34682.8 hPa Calm   2.6 km/h 93 % 0 mm 0 W/m2
05:15 -8.8 °C -9.5 °C 34682.8 hPa Calm     93 % 0 mm 0 W/m2
05:20 -8.8 °C -9.5 °C 34682.8 hPa Calm     93 % 0 mm 0 W/m2
05:25 -8.8 °C -9.5 °C 34682.8 hPa Calm     93 % 0 mm 0 W/m2
05:30 -8.8 °C -9.5 °C 34682.8 hPa Calm     93 % 0 mm 0 W/m2
05:35 -8.8 °C -9.5 °C 34682.8 hPa Calm   2.6 km/h 93 % 0 mm 0 W/m2
05:40 -8.9 °C -9.5 °C 34682.8 hPa Calm   7.7 km/h 93 % 0 mm 0 W/m2
05:45 -8.8 °C -9.5 °C 34682.8 hPa Calm   10.3 km/h 93 % 0 mm 0 W/m2
05:50 -8.8 °C -9.5 °C 34682.8 hPa NW 5.1 km/h 12.9 km/h 93 % 0 mm 0 W/m2
05:55 -8.9 °C -9.5 °C 34693 hPa NW 5.1 km/h 12.9 km/h 93 % 0 mm 0 W/m2
06:00 -8.8 °C -9.5 °C 34693 hPa NW 5.1 km/h 12.9 km/h 93 % 0 mm 0 W/m2
06:05 -8.9 °C -9.5 °C 34693 hPa NW 2.6 km/h 10.3 km/h 93 % 0 mm 0 W/m2
06:10 -8.9 °C -9.5 °C 34693 hPa Calm   10.3 km/h 93 % 0 mm 0 W/m2
06:15 -8.9 °C -9.5 °C 34693 hPa NW 2.6 km/h 7.7 km/h 93 % 0 mm 0 W/m2
06:20 -8.9 °C -9.6 °C 34693 hPa NW 5.1 km/h 5.1 km/h 93 % 0 mm 0 W/m2
06:25 -8.9 °C -9.6 °C 34693 hPa Calm   5.1 km/h 93 % 0 mm 0 W/m2
06:30 -8.9 °C -9.6 °C 34693 hPa NW 2.6 km/h 5.1 km/h 93 % 0 mm 0 W/m2
06:35 -8.9 °C -9.6 °C 34693 hPa Calm   5.1 km/h 93 % 0 mm 0 W/m2
06:40 -8.9 °C -9.6 °C 34693 hPa Calm   5.1 km/h 93 % 0 mm 5 W/m2
06:45 -8.9 °C -9.6 °C 34693 hPa Calm   5.1 km/h 93 % 0 mm 7 W/m2
06:50 -8.9 °C -9.6 °C 34693 hPa Calm     93 % 0 mm 9 W/m2
06:55 -8.9 °C -9.6 °C 34693 hPa Calm   2.6 km/h 93 % 0 mm 14 W/m2
07:00 -8.9 °C -9.6 °C 34693 hPa Calm   2.6 km/h 93 % 0 mm 23 W/m2
07:05 -9 °C -9.6 °C 34693 hPa Calm     93 % 0 mm 28 W/m2
07:10 -9 °C -9.6 °C 34693 hPa Calm     93 % 0 mm 37 W/m2
07:15 -8.9 °C -9.6 °C 34693 hPa NW 5.1 km/h 7.7 km/h 93 % 0 mm 33 W/m2
07:20 -8.9 °C -9.6 °C 34693 hPa Calm   7.7 km/h 93 % 0 mm 33 W/m2
07:25 -8.9 °C -9.6 °C 34693 hPa Calm   7.7 km/h 93 % 0 mm 40 W/m2
07:30 -8.9 °C -9.5 °C 34693 hPa Calm   2.6 km/h 93 % 0 mm 47 W/m2
07:35 -8.9 °C -9.5 °C 34693 hPa Calm   5.1 km/h 93 % 0 mm 54 W/m2
07:40 -8.8 °C -9.5 °C 34693 hPa Calm   5.1 km/h 93 % 0 mm 62 W/m2
07:45 -8.8 °C -9.6 °C 34693 hPa NW 5.1 km/h 5.1 km/h 92 % 0 mm 72 W/m2
07:50 -8.8 °C -9.4 °C 34693 hPa Calm   5.1 km/h 93 % 0 mm 72 W/m2
07:55 -8.7 °C -9.4 °C 34693 hPa Calm   5.1 km/h 92 % 0 mm 74 W/m2
08:00 -8.7 °C -9.6 °C 34693 hPa NW 5.1 km/h 7.7 km/h 91 % 0 mm 83 W/m2
08:05 -8.8 °C -9.6 °C 34703.1 hPa NW 7.7 km/h 7.7 km/h 91 % 0 mm 86 W/m2
08:10 -8.7 °C -9.6 °C 34703.1 hPa Calm   12.9 km/h 91 % 0 mm 93 W/m2
08:15 -8.7 °C -9.5 °C 34703.1 hPa Calm   12.9 km/h 91 % 0 mm 98 W/m2
08:20 -8.7 °C -9.4 °C 34703.1 hPa NW 7.7 km/h 7.7 km/h 91 % 0 mm 102 W/m2
08:25 -8.7 °C -9.6 °C 34703.1 hPa Calm   7.7 km/h 90 % 0 mm 104 W/m2
08:30 -8.7 °C -9.7 °C 34703.1 hPa Calm   10.3 km/h 89 % 0 mm 113 W/m2
08:35 -8.6 °C -9.5 °C 34703.1 hPa NW 5.1 km/h 10.3 km/h 90 % 0 mm 118 W/m2
08:40 -8.4 °C -9.4 °C 34703.1 hPa Calm   7.7 km/h 89 % 0 mm 123 W/m2
08:45 -8.4 °C -9.6 °C 34703.1 hPa Calm   7.7 km/h 88 % 0 mm 130 W/m2
08:50 -8.4 °C -9.6 °C 34703.1 hPa NW 2.6 km/h 10.3 km/h 88 % 0 mm 134 W/m2
08:55 -8.3 °C -9.4 °C 34716.7 hPa NW 5.1 km/h 10.3 km/h 88 % 0 mm 142 W/m2
09:00 -8.3 °C -9.4 °C 34716.7 hPa NW 10.3 km/h 10.3 km/h 88 % 0 mm 158 W/m2
09:05 -8.2 °C -9.4 °C 34716.7 hPa NW 5.1 km/h 10.3 km/h 87 % 0 mm 163 W/m2
09:10 -8.3 °C -9.5 °C 34716.7 hPa WNW 12.9 km/h 12.9 km/h 87 % 0 mm 179 W/m2
09:15 -8.2 °C -9.4 °C 34716.7 hPa NW 5.1 km/h 12.9 km/h 87 % 0 mm 192 W/m2
09:20 -8.1 °C -9.3 °C 34716.7 hPa NW 7.7 km/h 12.9 km/h 87 % 0 mm 200 W/m2
09:25 -8 °C -9.2 °C 34716.7 hPa Calm   10.3 km/h 87 % 0 mm 225 W/m2
09:30 -8 °C -9.2 °C 34716.7 hPa Calm   7.7 km/h 87 % 0 mm 237 W/m2
09:35 -7.9 °C -9.2 °C 34716.7 hPa NW 10.3 km/h 10.3 km/h 86 % 0 mm 234 W/m2
09:40 -7.9 °C -9.2 °C 34716.7 hPa Calm   12.9 km/h 86 % 0 mm 258 W/m2
09:45 -7.8 °C -9.2 °C 34716.7 hPa NW 2.6 km/h 12.9 km/h 85 % 0 mm 269 W/m2
09:50 -7.8 °C -9.1 °C 34716.7 hPa Calm   10.3 km/h 86 % 0 mm 262 W/m2
09:55 -7.7 °C -9.1 °C 34716.7 hPa NW 2.6 km/h 12.9 km/h 85 % 0 mm 281 W/m2
10:00 -7.8 °C -9.1 °C 34716.7 hPa NW 7.7 km/h 12.9 km/h 86 % 0 mm 295 W/m2
10:05 -7.7 °C -9.2 °C 34716.7 hPa NW 2.6 km/h 10.3 km/h 85 % 0 mm 281 W/m2
10:10 -7.6 °C -8.9 °C 34716.7 hPa NW 5.1 km/h 10.3 km/h 86 % 0 mm 311 W/m2
10:15 -7.6 °C -9.3 °C 34716.7 hPa WNW 5.1 km/h 10.3 km/h 83 % 0 mm 274 W/m2
10:20 -7.6 °C -9.2 °C 34716.7 hPa WSW 7.7 km/h 12.9 km/h 84 % 0 mm 279 W/m2
10:25 -7.6 °C -9.3 °C 34716.7 hPa SW 18.2 km/h 23.3 km/h 83 % 0 mm 272 W/m2
10:30 -7.6 °C -9.2 °C 34716.7 hPa West 7.7 km/h 25.9 km/h 83 % 0 mm 230 W/m2
10:35 -7.4 °C -9.2 °C 34716.7 hPa NW 5.1 km/h 25.9 km/h 82 % 0 mm 338 W/m2
10:40 -7.4 °C -9.2 °C 34716.7 hPa West 7.7 km/h 23.3 km/h 81 % 0 mm 304 W/m2
10:45 -7.4 °C -9.3 °C 34716.7 hPa West 7.7 km/h 25.9 km/h 80 % 0 mm 301 W/m2
10:50 -7.3 °C -9.3 °C 34716.7 hPa West 2.6 km/h 25.9 km/h 80 % 0 mm 260 W/m2
10:55 -7.4 °C -9.3 °C 34716.7 hPa NW 15.6 km/h 25.9 km/h 81 % 0 mm 244 W/m2
11:00 -7.4 °C -9.3 °C 34716.7 hPa WSW 10.3 km/h 28.5 km/h 81 % 0 mm 220 W/m2
11:05 -7.4 °C -9.2 °C 34716.7 hPa WSW 5.1 km/h 28.5 km/h 82 % 0 mm 197 W/m2
11:10 -7.5 °C -9.3 °C 34716.7 hPa WSW 7.7 km/h 23.3 km/h 81 % 0 mm 167 W/m2
11:15 -7.7 °C -9.5 °C 34716.7 hPa WSW 18.2 km/h 28.5 km/h 81 % 0 mm 155 W/m2
11:20 -7.7 °C -9.4 °C 34716.7 hPa SW 7.7 km/h 28.5 km/h 82 % 0 mm 167 W/m2
11:25 -7.7 °C -9.4 °C 34716.7 hPa WNW 18.2 km/h 18.2 km/h 82 % 0 mm 199 W/m2
11:30 -7.6 °C -9.3 °C 34716.7 hPa NW 12.9 km/h 23.3 km/h 82 % 0 mm 216 W/m2
11:35 -7.6 °C -9.3 °C 34716.7 hPa West 2.6 km/h 23.3 km/h 82 % 0 mm 269 W/m2
11:40 -7.4 °C -9.2 °C 34716.7 hPa West 15.6 km/h 20.8 km/h 81 % 0 mm 348 W/m2
11:45 -7.3 °C -9.4 °C 34703.1 hPa West 18.2 km/h 23.3 km/h 79 % 0 mm 348 W/m2
11:50 -7.4 °C -9.4 °C 34716.7 hPa WSW 10.3 km/h 33.6 km/h 80 % 0 mm 373 W/m2
11:55 -7.4 °C -9.4 °C 34703.1 hPa WSW 15.6 km/h 33.6 km/h 80 % 0 mm 503 W/m2
12:00 -7.4 °C -9.6 °C 34703.1 hPa WSW 7.7 km/h 33.6 km/h 78 % 0 mm 441 W/m2
12:05 -7.4 °C -9.6 °C 34716.7 hPa West 23.3 km/h 33.6 km/h 78 % 0 mm 438 W/m2
12:10 -7.3 °C -9.3 °C 34703.1 hPa WNW 23.3 km/h 31.1 km/h 80 % 0 mm 471 W/m2
12:15 -7.2 °C -9.3 °C 34703.1 hPa WNW 15.6 km/h 31.1 km/h 79 % 0 mm 547 W/m2
12:20 -7.1 °C -9.4 °C 34703.1 hPa West 5.1 km/h 31.1 km/h 77 % 0 mm 446 W/m2
12:25 -7.3 °C -9.4 °C 34703.1 hPa West 15.6 km/h 33.6 km/h 78 % 0 mm 531 W/m2
12:30 -7.2 °C -9.4 °C 34716.7 hPa West 18.2 km/h 33.6 km/h 78 % 0 mm 512 W/m2
12:35 -7.3 °C -9.4 °C 34716.7 hPa WNW 18.2 km/h 38.8 km/h 78 % 0 mm 547 W/m2
12:40 -7.1 °C -9.4 °C 34716.7 hPa WNW 23.3 km/h 38.8 km/h 77 % 0 mm 534 W/m2
12:45 -7.2 °C -9.4 °C 34716.7 hPa SW 25.9 km/h 38.8 km/h 78 % 0 mm 520 W/m2
12:50 -7.2 °C -9.4 °C 34716.7 hPa SW 20.8 km/h 36.2 km/h 78 % 0 mm 1081 W/m2
12:55 -6.8 °C -9.4 °C 34716.7 hPa West 28.5 km/h 33.6 km/h 74 % 0 mm 960 W/m2
13:00 -6.9 °C -9.6 °C 34703.1 hPa West 20.8 km/h 38.8 km/h 74 % 0 mm 875 W/m2
13:05 -6.8 °C -9.4 °C 34703.1 hPa SW 18.2 km/h 41.4 km/h 75 % 0 mm 896 W/m2
13:10 -7 °C -9.5 °C 34703.1 hPa West 10.3 km/h 44.1 km/h 75 % 0 mm 847 W/m2
13:15 -6.9 °C -9.3 °C 34703.1 hPa NW 15.6 km/h 44.1 km/h 76 % 0 mm 826 W/m2
13:20 -6.4 °C -9.1 °C 34703.1 hPa WSW 7.7 km/h 31.1 km/h 74 % 0 mm 865 W/m2
13:25 -6.3 °C -9.3 °C 34703.1 hPa West 18.2 km/h 38.8 km/h 72 % 0 mm 863 W/m2
13:30 -6.3 °C -9.4 °C 34703.1 hPa WSW 28.5 km/h 38.8 km/h 71 % 0 mm 895 W/m2
13:35 -6.5 °C -9.3 °C 34703.1 hPa WNW 10.3 km/h 36.2 km/h 73 % 0 mm 881 W/m2
13:40 -6.4 °C -9.6 °C 34703.1 hPa West 31.1 km/h 36.2 km/h 70 % 0 mm 909 W/m2
13:45 -6.8 °C -9.7 °C 34703.1 hPa WNW 18.2 km/h 38.8 km/h 72 % 0 mm 898 W/m2
13:50 -6.9 °C -9.9 °C 34716.7 hPa West 23.3 km/h 38.8 km/h 71 % 0 mm 904 W/m2
13:55 -7 °C -10 °C 34703.1 hPa West 28.5 km/h 38.8 km/h 71 % 0 mm 905 W/m2
14:00 -6.8 °C -9.5 °C 34703.1 hPa West 20.8 km/h 38.8 km/h 73 % 0 mm 877 W/m2
14:05 -6.6 °C -9.9 °C 34703.1 hPa West 23.3 km/h 36.2 km/h 69 % 0 mm 914 W/m2
14:10 -7 °C -9.9 °C 34703.1 hPa West 20.8 km/h 38.8 km/h 72 % 0 mm 914 W/m2
14:15 -7.1 °C -9.9 °C 34703.1 hPa WSW 10.3 km/h 38.8 km/h 72 % 0 mm 911 W/m2
14:20 -6.7 °C -9.6 °C 34703.1 hPa SW 7.7 km/h 33.6 km/h 72 % 0 mm 907 W/m2
14:25 -6.6 °C -9.7 °C 34703.1 hPa West 20.8 km/h 33.6 km/h 70 % 0 mm 905 W/m2
14:30 -7 °C -10.1 °C 34703.1 hPa WSW 12.9 km/h 38.8 km/h 70 % 0 mm 904 W/m2
14:35 -7.1 °C -9.9 °C 34703.1 hPa WNW 7.7 km/h 38.8 km/h 72 % 0 mm 898 W/m2
14:40 -7 °C -9.8 °C 34703.1 hPa NW 15.6 km/h 38.8 km/h 73 % 0 mm 911 W/m2
14:45 -7.1 °C -9.9 °C 34703.1 hPa West 18.2 km/h 38.8 km/h 72 % 0 mm 893 W/m2
14:50 -7.1 °C -10.1 °C 34703.1 hPa West 12.9 km/h 38.8 km/h 71 % 0 mm 895 W/m2
14:55 -7.1 °C -9.9 °C 34703.1 hPa WSW 20.8 km/h 38.8 km/h 72 % 0 mm 872 W/m2
15:00 -6.9 °C -10.2 °C 34693 hPa NW 5.1 km/h 38.8 km/h 69 % 0 mm 886 W/m2
15:05 -6.7 °C -9.9 °C 34703.1 hPa WNW 10.3 km/h 36.2 km/h 69 % 0 mm 875 W/m2
15:10 -6.9 °C -10.1 °C 34693 hPa WNW 10.3 km/h 28.5 km/h 70 % 0 mm 879 W/m2
15:15 -6.4 °C -10.1 °C 34703.1 hPa WSW 5.1 km/h 36.2 km/h 66 % 0 mm 882 W/m2
15:20 -6.8 °C -10.2 °C 34693 hPa WSW 31.1 km/h 36.2 km/h 68 % 0 mm 881 W/m2
15:25 -6.8 °C -9.8 °C 34693 hPa WSW 18.2 km/h 38.8 km/h 71 % 0 mm 847 W/m2
15:30 -6.7 °C -9.9 °C 34693 hPa West 15.6 km/h 38.8 km/h 69 % 0 mm 867 W/m2
15:35 -6.9 °C -10.2 °C 34693 hPa West 15.6 km/h 31.1 km/h 69 % 0 mm 858 W/m2
15:40 -6.9 °C -10 °C 34693 hPa WNW 18.2 km/h 36.2 km/h 70 % 0 mm 851 W/m2
15:45 -6.8 °C -9.8 °C 34693 hPa WNW 15.6 km/h 36.2 km/h 71 % 0 mm 849 W/m2
15:50 -6.6 °C -9.8 °C 34693 hPa West 23.3 km/h 38.8 km/h 69 % 0 mm 821 W/m2
15:55 -6.6 °C -9.9 °C 34693 hPa West 7.7 km/h 38.8 km/h 69 % 0 mm 831 W/m2
16:00 -6.6 °C -9.8 °C 34693 hPa WNW 25.9 km/h 31.1 km/h 69 % 0 mm 826 W/m2
16:05 -6.4 °C -9.4 °C 34693 hPa WNW 15.6 km/h 31.1 km/h 71 % 0 mm 796 W/m2
16:10 -6.8 °C -9.9 °C 34693 hPa WNW 10.3 km/h 33.6 km/h 70 % 0 mm 807 W/m2
16:15 -6.7 °C -9.9 °C 34693 hPa WNW 20.8 km/h 36.2 km/h 69 % 0 mm 793 W/m2
16:20 -6.7 °C -9.9 °C 34693 hPa WSW 18.2 km/h 36.2 km/h 69 % 0 mm 745 W/m2
16:25 -6.8 °C -9.8 °C 34693 hPa West 20.8 km/h 33.6 km/h 71 % 0 mm 773 W/m2
16:30 -6.7 °C -9.7 °C 34682.8 hPa WSW 20.8 km/h 33.6 km/h 71 % 0 mm 724 W/m2
16:35 -6.4 °C -9.8 °C 34682.8 hPa WNW 12.9 km/h 31.1 km/h 68 % 0 mm 737 W/m2
16:40 -6.3 °C -9.6 °C 34693 hPa WNW 20.8 km/h 33.6 km/h 69 % 0 mm 768 W/m2
16:45 -6.7 °C -9.8 °C 34682.8 hPa West 12.9 km/h 38.8 km/h 70 % 0 mm 738 W/m2
16:50 -7.1 °C -10.1 °C 34682.8 hPa WNW 15.6 km/h 41.4 km/h 71 % 0 mm 693 W/m2
16:55 -7.1 °C -9.8 °C 34682.8 hPa West 7.7 km/h 41.4 km/h 73 % 0 mm 643 W/m2
17:00 -6.6 °C -9.7 °C 34682.8 hPa West 5.1 km/h 31.1 km/h 70 % 0 mm 684 W/m2
17:05 -6.6 °C -9.7 °C 34682.8 hPa West 7.7 km/h 28.5 km/h 70 % 0 mm 657 W/m2
17:10 -6.8 °C -9.8 °C 34682.8 hPa WNW 10.3 km/h 38.8 km/h 71 % 0 mm 686 W/m2
17:15 -6.6 °C -9.5 °C 34682.8 hPa West 15.6 km/h 38.8 km/h 72 % 0 mm 677 W/m2
17:20 -6.5 °C -9.6 °C 34669.3 hPa West 20.8 km/h 36.2 km/h 70 % 0 mm 668 W/m2
17:25 -6.6 °C -9.7 °C 34682.8 hPa WSW 12.9 km/h 36.2 km/h 70 % 0 mm 666 W/m2
17:30 -6.4 °C -9.6 °C 34669.3 hPa WSW 12.9 km/h 28.5 km/h 70 % 0 mm 654 W/m2
17:35 -6.6 °C -9.8 °C 34669.3 hPa West 23.3 km/h 36.2 km/h 70 % 0 mm 631 W/m2
17:40 -6.6 °C -9.6 °C 34669.3 hPa West 5.1 km/h 36.2 km/h 71 % 0 mm 621 W/m2
17:45 -6.5 °C -9.8 °C 34669.3 hPa WNW 23.3 km/h 33.6 km/h 69 % 0 mm 606 W/m2
17:50 -6.3 °C -9.5 °C 34669.3 hPa WSW 10.3 km/h 41.4 km/h 70 % 0 mm 603 W/m2
17:55 -6.4 °C -9.6 °C 34669.3 hPa West 15.6 km/h 41.4 km/h 70 % 0 mm 585 W/m2
18:00 -6.6 °C -9.7 °C 34669.3 hPa WNW 36.2 km/h 36.2 km/h 70 % 0 mm 573 W/m2
18:05 -6.8 °C -9.7 °C 34669.3 hPa WNW 23.3 km/h 36.2 km/h 72 % 0 mm 557 W/m2
18:10 -7 °C -9.7 °C 34669.3 hPa NW 18.2 km/h 38.8 km/h 73 % 0 mm 547 W/m2
18:15 -6.7 °C -9.7 °C 34669.3 hPa WNW 28.5 km/h 38.8 km/h 71 % 0 mm 534 W/m2
18:20 -7.1 °C -9.8 °C 34669.3 hPa WNW 18.2 km/h 38.8 km/h 73 % 0 mm 520 W/m2
18:25 -7 °C -9.7 °C 34659.1 hPa WSW 10.3 km/h 38.8 km/h 74 % 0 mm 508 W/m2
18:30 -7.2 °C -9.7 °C 34659.1 hPa WNW 12.9 km/h 36.2 km/h 75 % 0 mm 496 W/m2
18:35 -7.1 °C -9.7 °C 34659.1 hPa West 7.7 km/h 33.6 km/h 75 % 0 mm 482 W/m2
18:40 -7 °C -9.7 °C 34659.1 hPa WSW 18.2 km/h 38.8 km/h 74 % 0 mm 468 W/m2
18:45 -6.9 °C -9.6 °C 34659.1 hPa West 18.2 km/h 38.8 km/h 74 % 0 mm 454 W/m2
18:50 -6.9 °C -9.4 °C 34645.6 hPa NW 2.6 km/h 31.1 km/h 75 % 0 mm 441 W/m2
18:55 -6.9 °C -9.7 °C 34659.1 hPa West 15.6 km/h 28.5 km/h 73 % 0 mm 427 W/m2
19:00 -6.8 °C -9.4 °C 34645.6 hPa West 12.9 km/h 28.5 km/h 74 % 0 mm 411 W/m2
19:05 -6.8 °C -9.6 °C 34645.6 hPa WSW 10.3 km/h 25.9 km/h 73 % 0 mm 397 W/m2
19:10 -6.7 °C -9.4 °C 34645.6 hPa West 25.9 km/h 25.9 km/h 74 % 0 mm 383 W/m2
19:15 -7.1 °C -9.6 °C 34645.6 hPa NW 10.3 km/h 28.5 km/h 75 % 0 mm 371 W/m2
19:20 -7.1 °C -9.7 °C 34645.6 hPa WNW 7.7 km/h 28.5 km/h 74 % 0 mm 359 W/m2
19:25 -7.3 °C -9.8 °C 34645.6 hPa SW 18.2 km/h 28.5 km/h 75 % 0 mm 343 W/m2
19:30 -7.3 °C -9.7 °C 34645.6 hPa West 12.9 km/h 28.5 km/h 76 % 0 mm 327 W/m2
19:35 -7.4 °C -9.8 °C 34645.6 hPa West 28.5 km/h 31.1 km/h 76 % 0 mm 308 W/m2
19:40 -7.4 °C -9.6 °C 34645.6 hPa NW 12.9 km/h 31.1 km/h 78 % 0 mm 288 W/m2
19:45 -7.4 °C -9.7 °C 34645.6 hPa West 20.8 km/h 28.5 km/h 77 % 0 mm 262 W/m2
19:50 -7.4 °C -9.7 °C 34645.6 hPa WSW 18.2 km/h 28.5 km/h 78 % 0 mm 241 W/m2
19:55 -7.4 °C -9.7 °C 34645.6 hPa West 12.9 km/h 28.5 km/h 78 % 0 mm 218 W/m2
20:00 -7.4 °C -9.6 °C 34645.6 hPa WSW 10.3 km/h 36.2 km/h 78 % 0 mm 204 W/m2
20:05 -7.4 °C -9.6 °C 34645.6 hPa West 12.9 km/h 36.2 km/h 78 % 0 mm 160 W/m2
20:10 -7.6 °C -9.6 °C 34645.6 hPa West 10.3 km/h 31.1 km/h 79 % 0 mm 118 W/m2
20:15 -7.7 °C -9.6 °C 34645.6 hPa West 12.9 km/h 31.1 km/h 80 % 0 mm 172 W/m2
20:20 -7.8 °C -9.7 °C 34645.6 hPa West 5.1 km/h 31.1 km/h 80 % 0 mm 149 W/m2
20:25 -7.8 °C -9.7 °C 34635.4 hPa NW 12.9 km/h 31.1 km/h 81 % 0 mm 121 W/m2
20:30 -7.9 °C -9.7 °C 34635.4 hPa West 12.9 km/h 28.5 km/h 81 % 0 mm 104 W/m2
20:35 -7.9 °C -9.6 °C 34635.4 hPa WSW 18.2 km/h 23.3 km/h 82 % 0 mm 130 W/m2
20:40 -7.9 °C -9.7 °C 34635.4 hPa West 20.8 km/h 28.5 km/h 82 % 0 mm 72 W/m2
20:45 -8.1 °C -9.8 °C 34635.4 hPa West 18.2 km/h 28.5 km/h 82 % 0 mm 54 W/m2
20:50 -8.1 °C -9.7 °C 34635.4 hPa West 23.3 km/h 28.5 km/h 83 % 0 mm 56 W/m2
20:55 -8.2 °C -9.8 °C 34635.4 hPa West 2.6 km/h 25.9 km/h 83 % 0 mm 56 W/m2
21:00 -8.2 °C -9.7 °C 34635.4 hPa West 12.9 km/h 25.9 km/h 84 % 0 mm 47 W/m2
21:05 -8.2 °C -9.7 °C 34635.4 hPa WSW 5.1 km/h 23.3 km/h 84 % 0 mm 40 W/m2
21:10 -8.2 °C -9.8 °C 34635.4 hPa WNW 7.7 km/h 23.3 km/h 84 % 0 mm 32 W/m2
21:15 -8.3 °C -9.8 °C 34635.4 hPa West 10.3 km/h 20.8 km/h 84 % 0 mm 30 W/m2
21:20 -8.3 °C -9.8 °C 34635.4 hPa WNW 5.1 km/h 23.3 km/h 84 % 0 mm 28 W/m2
21:25 -8.3 °C -9.7 °C 34635.4 hPa WSW 12.9 km/h 23.3 km/h 85 % 0 mm 26 W/m2
21:30 -8.3 °C -9.7 °C 34635.4 hPa WNW 5.1 km/h 20.8 km/h 85 % 0 mm 26 W/m2
21:35 -8.4 °C -9.8 °C 34635.4 hPa Calm   20.8 km/h 85 % 0 mm 25 W/m2
21:40 -8.4 °C -9.7 °C 34625.2 hPa WSW 5.1 km/h 20.8 km/h 86 % 0 mm 21 W/m2
21:45 -8.4 °C -9.8 °C 34635.4 hPa West 2.6 km/h 20.8 km/h 86 % 0 mm 19 W/m2
21:50 -8.5 °C -9.8 °C 34625.2 hPa WNW 5.1 km/h 20.8 km/h 86 % 0 mm 16 W/m2
21:55 -8.6 °C -9.8 °C 34625.2 hPa WNW 7.7 km/h 20.8 km/h 87 % 0 mm 12 W/m2
22:00 -8.6 °C -9.8 °C 34625.2 hPa Calm   15.6 km/h 87 % 0 mm 11 W/m2
22:05 -8.7 °C -9.8 °C 34625.2 hPa WNW 7.7 km/h 18.2 km/h 87 % 0 mm 7 W/m2
22:10 -8.7 °C -9.8 °C 34625.2 hPa West 2.6 km/h 18.2 km/h 88 % 0 mm 5 W/m2
22:15 -8.8 °C -9.9 °C 34625.2 hPa WNW 2.6 km/h 15.6 km/h 88 % 0 mm 0 W/m2
22:20 -9 °C -10.1 °C 34625.2 hPa Calm   15.6 km/h 88 % 0 mm 0 W/m2
22:25 -9.1 °C -10.1 °C 34625.2 hPa West 5.1 km/h 12.9 km/h 89 % 0 mm 0 W/m2
22:30 -9.1 °C -10.1 °C 34635.4 hPa Calm   10.3 km/h 90 % 0 mm 0 W/m2
22:35 -9.2 °C -10 °C 34635.4 hPa Calm   10.3 km/h 91 % 0 mm 0 W/m2
22:40 -9.2 °C -10.1 °C 34635.4 hPa West 2.6 km/h 10.3 km/h 90 % 0 mm 0 W/m2
22:45 -9.3 °C -10.1 °C 34635.4 hPa WNW 2.6 km/h 7.7 km/h 91 % 0 mm 0 W/m2
22:50 -9.3 °C -10.2 °C 34635.4 hPa WNW 2.6 km/h 10.3 km/h 91 % 0 mm 0 W/m2
22:55 -9.4 °C -10.1 °C 34635.4 hPa WNW 2.6 km/h 10.3 km/h 92 % 0 mm 0 W/m2
23:00 -9.5 °C -10.2 °C 34635.4 hPa WNW 5.1 km/h 15.6 km/h 92 % 0 mm 0 W/m2
23:05 -9.6 °C -10.3 °C 34635.4 hPa Calm   15.6 km/h 92 % 0 mm 0 W/m2
23:10 -9.6 °C -10.3 °C 34635.4 hPa WNW 5.1 km/h 10.3 km/h 92 % 0 mm 0 W/m2
23:15 -9.6 °C -10.2 °C 34635.4 hPa NW 2.6 km/h 12.9 km/h 93 % 0 mm 0 W/m2
23:20 -9.5 °C -10.1 °C 34635.4 hPa NW 10.3 km/h 12.9 km/h 93 % 0 mm 0 W/m2
23:25 -9.6 °C -10.2 °C 34635.4 hPa Calm   12.9 km/h 93 % 0 mm 0 W/m2
23:30 -9.5 °C -10.2 °C 34635.4 hPa WNW 7.7 km/h 15.6 km/h 92 % 0 mm 0 W/m2
23:35 -9.6 °C -10.3 °C 34635.4 hPa WNW 2.6 km/h 15.6 km/h 92 % 0 mm 0 W/m2
23:40 -9.6 °C -10.3 °C 34635.4 hPa Calm   10.3 km/h 93 % 0 mm 0 W/m2
23:45 -9.7 °C -10.3 °C 34635.4 hPa WNW 2.6 km/h 10.3 km/h 93 % 0 mm 0 W/m2
23:50 -9.7 °C -10.3 °C 34635.4 hPa Calm   10.3 km/h 94 % 0 mm 0 W/m2
23:55 -9.8 °C -10.4 °C 34635.4 hPa Calm   10.3 km/h 93 % 0 mm 0 W/m2
Avec l'autorisation de Weather Underground - 1.75 mb